QPF
0.00 0.00 0.00 0.00 0.00 0.00 0.00 0.00 0.00 0.00 0.00 0.00 0.00 0.00 0.00 0.00 0.00 0.00 0.00 0.00 0.00 0.00 0.00 0.00 0.00 0.01 0.00 0.01 0.02 0.01 0.01 0.01 0.03 0.02 0.01 0.01 0.00 0.01 0.04 0.05 0.02 0.00 0.01
0.00 0.00 0.00 0.00 0.00 0.00 0.00 0.00 0.00 0.00 0.00 0.00 0.00 0.00 0.00 0.00 0.00 0.00 0.00 0.00 0.00 0.01 0.00 0.00 0.00 0.01 0.00 0.00 0.00 0.00 0.00 0.00 0.00 0.00 0.01 0.01 0.01 0.02 0.03 0.05 0.01 0.00 0.01
0.00 0.00 0.00 0.00 0.00 0.00 0.00 0.00 0.00 0.00 0.00 0.00 0.01 0.01 0.01 0.03 0.02 0.00 0.00 0.00 0.01 0.07 0.05 0.01 0.00 0.00 0.00 0.00 0.00 0.00 0.00 0.00 0.00 0.07 0.06 0.00 0.02 0.04 0.00 0.00 0.00 0.01 0.01
0.00 0.00 0.00 0.00 0.00 0.00 0.00 0.00 0.00 0.00 0.00 0.01 0.02 0.02 0.00 0.00 0.00 0.01 0.02 0.03 0.04 0.05 0.06 0.02 0.03 0.01 0.00 0.00 0.00 0.00 0.00 0.00 0.01 0.01 0.08 0.06 0.06 0.04 0.00 0.00 0.00 0.00 0.00
0.00 0.00 0.00 0.00 0.00 0.00 0.00 0.00 0.00 0.00 0.00 0.01 0.02 0.02 0.02 0.05 0.05 0.05 0.15 0.18 0.27 0.29 0.20 0.13 0.08 0.03 0.00 0.00 0.00 0.00 0.00 0.00 0.01 0.03 0.06 0.06 0.04 0.05 0.01 0.00 0.00 0.00 0.00
0.00 0.00 0.00 0.00 0.00 0.00 0.00 0.00 0.00 0.00 0.00 0.01 0.03 0.05 0.05 0.03 0.02 0.02 0.06 0.23 0.43 0.53 0.38 0.39 0.41 0.18 0.02 0.00 0.00 0.00 0.01 0.02 0.07 0.14 0.04 0.07 0.03 0.04 0.02 0.00 0.00 0.00 0.00
0.00 0.00 0.00 0.00 0.00 0.00 0.00 0.00 0.00 0.00 0.00 0.04 0.08 0.02 0.02 0.03 0.03 0.04 0.02 0.07 0.12 0.11 0.11 0.20 0.43 0.34 0.20 0.13 0.06 0.01 0.04 0.06 0.05 0.08 0.04 0.03 0.03 0.02 0.00 0.00 0.00 0.00 0.00
0.00 0.00 0.00 0.00 0.00 0.00 0.00 0.00 0.00 0.00 0.00 0.01 0.01 0.04 0.01 0.02 0.01 0.02 0.02 0.02 0.00 0.01 0.00 0.00 0.07 0.19 0.23 0.22 0.23 0.19 0.08 0.02 0.04 0.06 0.02 0.01 0.02 0.01 0.00 0.00 0.00 0.00 0.00
0.00 0.00 0.00 0.00 0.00 0.00 0.00 0.00 0.00 0.00 0.00 0.00 0.00 0.00 0.00 0.00 0.01 0.06 0.03 0.02 0.00 0.00 0.00 0.00 0.00 0.02 0.09 0.20 0.22 0.13 0.06 0.02 0.04 0.00 0.00 0.00 0.01 0.00 0.00 0.00 0.00 0.00 0.00
0.00 0.00 0.00 0.00 0.00 0.00 0.00 0.00 0.00 0.00 0.00 0.00 0.00 0.00 0.02 0.03 0.02 0.03 0.01 0.01 0.01 0.02 0.00 0.00 0.00 0.00 0.01 0.03 0.15 0.13 0.05 0.03 0.02 0.01 0.00 0.00 0.00 0.00 0.00 0.00 0.00 0.00 0.00
0.00 0.00 0.00 0.00 0.00 0.00 0.00 0.00 0.00 0.00 0.00 0.00 0.00 0.00 0.03 0.11 0.10 0.04 0.08 0.02 0.02 0.00 0.00 0.00 0.00 0.00 0.02 0.00 0.08 0.11 0.08 0.02 0.03 0.01 0.00 0.00 0.00 0.00 0.00 0.00 0.00 0.00 0.00
0.00 0.00 0.00 0.00 0.00 0.00 0.00 0.00 0.00 0.00 0.00 0.00 0.00 0.00 0.04 0.05 0.12 0.10 0.06 0.01 0.01 0.00 0.00 0.00 0.01 0.04 0.02 0.00 0.06 0.10 0.03 0.05 0.01 0.00 0.00 0.00 0.00 0.00 0.00 0.00 0.00 0.00 0.00
0.00 0.00 0.00 0.00 0.00 0.00 0.00 0.00 0.00 0.00 0.00 0.00 0.00 0.00 0.01 0.01 0.08 0.16 0.05 0.02 0.03 0.00 0.01 0.00 0.00 0.01 0.00 0.01 0.06 0.06 0.09 0.04 0.02 0.00 0.00 0.00 0.00 0.00 0.00 0.00 0.00 0.00 0.00
0.00 0.00 0.00 0.00 0.00 0.00 0.00 0.00 0.00 0.00 0.00 0.00 0.00 0.02 0.02 0.02 0.03 0.05 0.05 0.05 0.03 0.03 0.02 0.01 0.00 0.00 0.00 0.02 0.14 0.14 0.03 0.02 0.02 0.00 0.00 0.00 0.00 0.00 0.00 0.00 0.00 0.00 0.01
0.00 0.00 0.00 0.00 0.00 0.00 0.00 0.00 0.00 0.00 0.00 0.00 0.00 0.00 0.01 0.02 0.02 0.04 0.05 0.06 0.08 0.11 0.06 0.03 0.01 0.00 0.00 0.02 0.15 0.16 0.03 0.02 0.01 0.00 0.00 0.00 0.00 0.00 0.00 0.00 0.01 0.01 0.00
0.00 0.00 0.00 0.00 0.00 0.00 0.00 0.00 0.00 0.00 0.00 0.00 0.00 0.00 0.00 0.01 0.03 0.02 0.05 0.05 0.06 0.12 0.08 0.01 0.00 0.00 0.00 0.03 0.15 0.11 0.01 0.02 0.01 0.00 0.00 0.00 0.00 0.00 0.00 0.01 0.01 0.01 0.00
0.00 0.00 0.00 0.00 0.00 0.00 0.00 0.00 0.00 0.00 0.00 0.00 0.00 0.00 0.00 0.00 0.00 0.01 0.03 0.04 0.05 0.08 0.04 0.03 0.03 0.01 0.01 0.05 0.11 0.09 0.01 0.00 0.00 0.00 0.00 0.00 0.00 0.00 0.00 0.00 0.01 0.01 0.00
0.00 0.00 0.00 0.00 0.00 0.00 0.00 0.00 0.00 0.00 0.00 0.00 0.00 0.01 0.00 0.00 0.00 0.00 0.02 0.06 0.09 0.07 0.04 0.01 0.00 0.01 0.05 0.08 0.10 0.04 0.00 0.00 0.00 0.00 0.00 0.00 0.00 0.00 0.00 0.00 0.00 0.01 0.00
0.00 0.00 0.00 0.00 0.00 0.00 0.00 0.00 0.00 0.00 0.00 0.00 0.00 0.00 0.00 0.00 0.00 0.01 0.03 0.07 0.11 0.10 0.05 0.01 0.00 0.00 0.03 0.05 0.06 0.02 0.00 0.00 0.00 0.00 0.00 0.00 0.00 0.00 0.00 0.00 0.00 0.00 0.00
0.00 0.00 0.00 0.00 0.00 0.00 0.00 0.00 0.00 0.00 0.00 0.00 0.00 0.00 0.00 0.00 0.00 0.02 0.02 0.06 0.08 0.04 0.02 0.01 0.00 0.01 0.02 0.02 0.03 0.02 0.00 0.00 0.00 0.00 0.00 0.00 0.00 0.00 0.00 0.00 0.00 0.00 0.00
0.00 0.00 0.00 0.00 0.00 0.00 0.00 0.00 0.00 0.00 0.00 0.00 0.00 0.00 0.00 0.00 0.01 0.03 0.02 0.01 0.04 0.02 0.01 0.01 0.01 0.00 0.04 0.05 0.02 0.02 0.01 0.00 0.00 0.00 0.00 0.00 0.00 0.00 0.00 0.00 0.00 0.00 0.00
0.00 0.00 0.00 0.00 0.00 0.00 0.00 0.00 0.00 0.00 0.00 0.00 0.00 0.00 0.00 0.00 0.01 0.03 0.02 0.00 0.01 0.01 0.01 0.01 0.00 0.00 0.03 0.05 0.02 0.00 0.02 0.02 0.01 0.00 0.00 0.00 0.00 0.00 0.00 0.00 0.00 0.00 0.00
0.00 0.00 0.00 0.00 0.00 0.00 0.00 0.00 0.00 0.00 0.00 0.00 0.00 0.00 0.00 0.00 0.01 0.00 0.00 0.00 0.00 0.01 0.01 0.01 0.00 0.00 0.00 0.03 0.01 0.00 0.00 0.01 0.00 0.00 0.00 0.00 0.00 0.00 0.00 0.00 0.00 0.00 0.00
0.00 0.00 0.00 0.00 0.00 0.00 0.00 0.00 0.00 0.00 0.00 0.00 0.00 0.00 0.00 0.00 0.00 0.00 0.00 0.00 0.01 0.00 0.01 0.01 0.00 0.00 0.01 0.01 0.01 0.00 0.00 0.00 0.00 0.01 0.00 0.00 0.00 0.00 0.00 0.00 0.00 0.00 0.00
0.00 0.00 0.00 0.00 0.00 0.00 0.00 0.00 0.00 0.00 0.00 0.00 0.00 0.00 0.00 0.00 0.00 0.00 0.00 0.00 0.00 0.00 0.00 0.00 0.01 0.01 0.03 0.02 0.00 0.00 0.00 0.00 0.00 0.00 0.00 0.00 0.00 0.00 0.00 0.00 0.00 0.00 0.00
0.00 0.00 0.00 0.00 0.00 0.00 0.00 0.00 0.00 0.00 0.00 0.00 0.00 0.00 0.00 0.00 0.00 0.00 0.00 0.00 0.00 0.00 0.00 0.00 0.01 0.02 0.03 0.03 0.02 0.00 0.00 0.01 0.01 0.01 0.00 0.01 0.00 0.00 0.00 0.00 0.00 0.00 0.00
MSLP
1004.99 1005.93 1006.50 1007.11 1007.53 1007.90 1008.28 1008.61 1008.99 1009.41 1009.75 1010.01 1010.28 1010.55 1010.74 1010.92 1011.15 1011.47 1011.78 1011.94 1012.12 1012.39 1012.77 1013.33 1013.83 1013.99 1014.28 1014.50 1014.75 1014.91 1015.20 1015.47 1015.64 1015.52 1015.72 1016.18 1016.54 1016.90 1017.26 1017.43 1017.63 1018.06 1018.32
1004.99 1005.70 1006.61 1007.25 1007.59 1007.98 1008.40 1008.80 1009.16 1009.48 1009.83 1010.21 1010.47 1010.75 1011.04 1011.24 1011.36 1011.72 1012.10 1012.36 1012.61 1012.86 1013.21 1013.67 1014.06 1014.42 1014.68 1014.88 1015.03 1015.34 1015.55 1015.83 1016.05 1016.13 1016.46 1016.78 1017.05 1017.28 1017.65 1017.78 1018.24 1018.60 1018.83
1005.02 1005.84 1006.67 1007.31 1007.74 1008.08 1008.53 1008.87 1009.26 1009.60 1009.86 1010.28 1010.59 1010.85 1011.01 1011.32 1011.58 1011.88 1012.25 1012.63 1012.87 1013.21 1013.69 1013.98 1014.34 1014.64 1015.02 1015.33 1015.52 1015.68 1015.92 1016.13 1016.29 1016.57 1016.86 1017.22 1017.64 1017.87 1018.14 1018.43 1018.74 1018.99 1019.26
1004.82 1005.79 1006.64 1007.36 1007.81 1008.19 1008.63 1008.99 1009.35 1009.62 1009.89 1010.19 1010.61 1011.01 1011.17 1011.33 1011.67 1012.01 1012.44 1012.79 1013.16 1013.49 1013.84 1014.21 1014.58 1014.99 1015.39 1015.62 1015.92 1016.08 1016.18 1016.44 1016.70 1016.93 1017.30 1017.73 1018.12 1018.28 1018.54 1018.85 1019.16 1019.38 1019.72
1004.62 1005.27 1006.57 1007.49 1007.88 1008.19 1008.67 1009.12 1009.38 1009.67 1009.91 1010.23 1010.51 1010.97 1011.30 1011.46 1011.85 1012.22 1012.60 1013.00 1013.48 1013.83 1014.19 1014.51 1014.92 1015.37 1015.85 1015.99 1016.20 1016.45 1016.59 1016.64 1016.76 1017.09 1017.62 1018.06 1018.48 1018.68 1018.94 1019.30 1019.63 1019.87 1020.13
1004.47 1005.27 1006.64 1007.40 1007.85 1008.22 1008.69 1009.10 1009.39 1009.74 1009.91 1010.24 1010.65 1010.97 1011.29 1011.56 1011.94 1012.16 1012.58 1013.15 1014.14 1014.73 1015.21 1015.09 1015.39 1015.80 1016.17 1016.44 1016.52 1016.69 1016.71 1016.95 1017.34 1017.51 1017.93 1018.38 1018.77 1019.12 1019.39 1019.74 1020.07 1020.33 1020.63
1004.75 1005.83 1006.61 1007.36 1007.83 1008.30 1008.76 1009.01 1009.39 1009.74 1009.99 1010.28 1010.53 1010.85 1011.12 1011.49 1011.96 1012.42 1012.94 1013.67 1014.71 1014.86 1015.53 1015.96 1016.16 1016.56 1016.58 1016.76 1016.83 1016.85 1017.02 1017.42 1017.37 1017.80 1018.19 1018.83 1019.26 1019.37 1019.76 1020.12 1020.40 1020.73 1020.99
1005.05 1006.02 1006.68 1007.52 1007.83 1008.18 1008.69 1008.99 1009.39 1009.80 1010.04 1010.28 1010.60 1010.77 1011.12 1011.51 1011.91 1012.33 1012.80 1013.73 1014.52 1015.02 1015.31 1015.76 1016.31 1016.65 1017.27 1017.21 1017.06 1017.17 1017.58 1017.64 1017.48 1018.05 1018.48 1019.09 1019.58 1019.74 1020.15 1020.42 1020.64 1021.10 1021.28
1005.21 1006.03 1006.77 1007.30 1007.95 1008.23 1008.68 1009.07 1009.40 1009.90 1010.20 1010.31 1010.52 1010.86 1011.11 1011.58 1011.94 1012.40 1013.00 1013.72 1014.29 1014.86 1015.36 1016.01 1016.22 1016.10 1016.83 1017.61 1017.54 1017.59 1017.86 1017.80 1017.85 1018.25 1018.64 1019.48 1019.73 1020.02 1020.51 1020.83 1020.87 1021.25 1021.57
1005.48 1005.98 1006.69 1007.06 1007.64 1007.96 1008.65 1009.20 1009.50 1009.89 1010.23 1010.32 1010.45 1010.75 1011.14 1011.61 1011.99 1012.64 1013.14 1013.68 1014.30 1014.90 1015.38 1015.64 1015.92 1016.06 1016.75 1017.60 1017.90 1017.65 1017.80 1017.81 1017.84 1018.26 1018.59 1019.68 1019.94 1020.29 1020.72 1021.02 1021.17 1021.55 1021.94
1005.70 1006.06 1006.26 1006.84 1007.24 1007.43 1008.07 1008.93 1009.51 1009.80 1010.11 1010.33 1010.48 1010.78 1011.24 1011.58 1012.15 1012.67 1013.05 1013.75 1014.18 1014.74 1015.33 1015.66 1016.07 1016.31 1016.48 1017.46 1017.90 1018.07 1017.93 1017.62 1018.16 1018.36 1018.97 1019.66 1020.08 1020.46 1020.95 1021.27 1021.47 1021.77 1022.18
1005.23 1005.80 1006.15 1006.59 1006.96 1007.15 1007.54 1008.50 1009.08 1009.48 1009.76 1010.11 1010.37 1010.79 1011.16 1011.59 1012.26 1012.61 1013.24 1013.79 1014.34 1014.89 1015.41 1015.79 1016.31 1016.52 1016.93 1017.47 1017.86 1018.13 1018.05 1017.89 1018.23 1018.64 1019.22 1019.66 1020.04 1020.47 1021.11 1021.44 1021.72 1022.04 1022.36
1004.47 1005.28 1005.92 1006.41 1006.78 1007.00 1007.40 1007.96 1008.54 1008.93 1009.25 1009.71 1010.06 1010.54 1010.94 1011.47 1012.20 1012.92 1013.57 1014.02 1014.52 1015.01 1015.52 1015.85 1016.22 1016.58 1016.92 1017.40 1017.78 1017.96 1017.78 1017.77 1018.48 1018.70 1019.42 1019.69 1020.01 1020.47 1021.16 1021.62 1021.86 1022.13 1022.49
1003.48 1004.53 1005.39 1006.00 1006.40 1006.77 1007.22 1007.57 1007.99 1008.39 1008.90 1009.41 1009.80 1010.25 1010.82 1011.31 1012.01 1012.71 1013.29 1013.79 1014.09 1014.70 1015.13 1015.43 1015.91 1016.55 1016.94 1017.33 1017.51 1017.74 1017.52 1017.50 1018.30 1018.89 1019.58 1019.81 1020.11 1020.43 1021.10 1021.50 1021.90 1022.25 1022.60
1002.20 1003.38 1004.41 1005.45 1006.06 1006.52 1006.73 1007.08 1007.60 1007.95 1008.69 1009.19 1009.55 1010.02 1010.61 1011.24 1011.90 1012.34 1012.94 1013.32 1013.80 1014.37 1014.73 1015.21 1015.76 1016.39 1016.91 1017.21 1017.65 1017.53 1017.17 1017.50 1018.03 1018.66 1019.53 1019.79 1020.11 1020.45 1021.06 1021.55 1021.88 1022.18 1022.67
1001.15 1002.34 1003.47 1004.64 1005.60 1006.29 1006.48 1006.77 1007.50 1008.03 1008.59 1009.20 1009.65 1010.00 1010.30 1010.79 1011.47 1012.23 1012.70 1013.12 1013.51 1013.89 1014.28 1014.74 1015.30 1016.10 1016.73 1016.94 1017.51 1017.73 1016.96 1017.24 1017.96 1018.53 1019.29 1019.89 1020.17 1020.46 1021.01 1021.46 1021.75 1022.20 1022.67
1000.37 1001.54 1002.69 1003.84 1005.05 1006.09 1006.41 1006.58 1007.28 1007.87 1008.24 1008.93 1009.36 1009.93 1010.31 1010.63 1010.92 1011.78 1012.46 1012.78 1013.07 1013.48 1013.99 1014.44 1015.05 1015.91 1016.43 1016.85 1017.44 1017.49 1016.63 1016.69 1017.60 1018.36 1019.07 1019.90 1020.36 1020.46 1020.91 1021.35 1021.77 1022.22 1022.74
999.70 1000.36 1001.93 1002.94 1004.42 1005.62 1006.09 1006.10 1006.81 1007.39 1007.84 1008.30 1008.76 1009.39 1010.07 1010.52 1010.88 1011.26 1011.99 1012.53 1012.60 1013.15 1013.70 1014.30 1015.00 1015.84 1016.38 1016.74 1017.21 1017.41 1016.63 1016.64 1017.17 1018.11 1018.89 1019.65 1020.32 1020.63 1020.94 1021.30 1021.74 1022.23 1022.71
999.09 999.64 1001.15 1002.36 1003.55 1004.95 1005.83 1005.89 1006.30 1006.93 1007.41 1007.72 1008.06 1008.65 1009.44 1010.03 1010.48 1010.98 1011.61 1012.07 1012.42 1012.92 1013.53 1014.00 1014.72 1015.45 1016.06 1016.57 1017.10 1017.32 1016.42 1016.87 1017.26 1017.69 1018.52 1019.27 1019.91 1020.44 1020.93 1021.29 1021.70 1022.05 1022.54
998.63 999.22 1000.33 1001.51 1002.76 1004.40 1005.63 1005.85 1006.15 1006.52 1007.16 1007.47 1007.67 1008.22 1008.83 1009.48 1009.96 1010.48 1011.13 1011.60 1011.99 1012.69 1013.36 1013.82 1014.43 1015.11 1015.63 1016.09 1016.86 1017.21 1016.49 1016.88 1017.29 1017.73 1018.18 1018.81 1019.51 1019.96 1020.56 1021.11 1021.70 1022.06 1022.36
998.14 998.82 999.86 1001.01 1002.25 1003.72 1004.97 1005.62 1005.95 1006.43 1006.97 1007.50 1007.74 1007.75 1008.20 1008.76 1009.37 1010.05 1010.61 1011.19 1011.79 1012.33 1012.76 1013.29 1014.09 1014.77 1015.74 1016.18 1016.92 1016.70 1016.87 1017.13 1017.64 1017.78 1018.05 1018.57 1019.12 1019.68 1020.10 1020.67 1021.38 1021.80 1022.21
998.19 998.59 999.30 1000.46 1001.60 1002.75 1004.06 1005.05 1005.82 1006.36 1006.90 1007.37 1007.55 1007.69 1007.96 1008.25 1008.79 1009.52 1010.28 1010.99 1011.60 1012.11 1012.60 1013.04 1013.68 1014.46 1015.15 1015.73 1016.34 1016.32 1017.20 1018.03 1018.14 1018.18 1018.29 1018.56 1019.15 1019.13 1019.68 1020.21 1020.85 1021.27 1021.65
998.30 998.59 998.88 999.59 1000.62 1001.81 1003.35 1004.68 1005.55 1006.15 1006.50 1006.98 1006.95 1007.17 1007.47 1007.83 1008.25 1009.12 1009.80 1010.71 1011.39 1011.82 1012.16 1012.31 1013.09 1013.68 1014.33 1015.43 1015.89 1015.37 1016.64 1017.44 1018.29 1018.52 1018.47 1018.57 1018.73 1019.00 1018.99 1019.54 1019.96 1020.39 1020.76
998.63 998.67 999.02 999.23 999.83 1000.73 1002.39 1003.84 1004.54 1004.83 1005.31 1005.92 1006.15 1006.65 1007.09 1007.46 1008.20 1008.79 1009.57 1010.33 1010.95 1011.35 1011.39 1011.81 1012.50 1013.16 1013.81 1014.73 1015.47 1015.16 1015.23 1015.88 1017.05 1018.53 1018.89 1018.80 1018.63 1018.74 1018.61 1018.94 1019.33 1019.55 1019.85
999.02 998.94 998.90 999.07 999.38 1000.06 1001.54 1002.55 1003.65 1003.95 1004.54 1005.23 1005.79 1006.25 1006.87 1007.44 1008.16 1008.98 1009.35 1009.90 1010.34 1010.62 1010.80 1011.53 1012.24 1012.85 1013.42 1014.11 1014.60 1014.92 1015.19 1015.75 1015.95 1017.08 1018.11 1018.60 1018.76 1018.51 1018.37 1018.53 1018.81 1019.07 1019.30
1000.08 999.96 999.41 998.96 998.89 999.79 1000.95 1001.83 1002.59 1003.15 1003.67 1004.49 1005.06 1005.74 1006.76 1007.45 1008.07 1008.68 1009.10 1009.50 1009.89 1010.18 1010.39 1011.04 1011.61 1012.46 1013.12 1013.81 1014.29 1014.69 1014.88 1015.32 1015.89 1016.34 1016.86 1017.64 1017.92 1018.07 1018.11 1018.29 1018.58 1018.87 1018.98
Thickness
5790 5786 5780 5773 5768 5763 5759 5755 5751 5746 5743 5739 5734 5731 5729 5727 5725 5724 5721 5719 5717 5714 5712 5708 5705 5707 5706 5706 5706 5706 5706 5705 5704 5707 5707 5704 5702 5701 5698 5698 5698 5696 5694
5791 5784 5777 5769 5765 5760 5755 5750 5746 5743 5739 5734 5730 5726 5722 5720 5721 5718 5715 5711 5709 5706 5704 5702 5699 5699 5698 5699 5700 5699 5699 5698 5698 5699 5697 5696 5696 5695 5694 5694 5692 5690 5689
5787 5780 5773 5766 5760 5756 5751 5747 5742 5739 5735 5730 5726 5723 5720 5718 5716 5713 5711 5707 5703 5700 5696 5694 5691 5691 5691 5691 5692 5693 5693 5692 5693 5692 5690 5690 5688 5688 5688 5688 5686 5686 5684
5786 5777 5769 5762 5756 5751 5747 5743 5739 5735 5731 5727 5722 5719 5717 5714 5711 5709 5704 5701 5697 5693 5690 5688 5686 5685 5684 5685 5684 5685 5687 5687 5686 5685 5683 5683 5681 5682 5683 5682 5681 5681 5679
5785 5779 5766 5757 5752 5748 5743 5738 5735 5731 5728 5724 5720 5716 5712 5710 5707 5702 5700 5695 5690 5685 5684 5682 5681 5678 5676 5677 5678 5679 5680 5682 5683 5682 5680 5678 5676 5676 5677 5676 5675 5675 5674
5783 5775 5762 5754 5748 5745 5740 5734 5731 5727 5725 5721 5717 5713 5709 5706 5702 5699 5695 5690 5680 5672 5665 5672 5670 5670 5669 5669 5672 5674 5676 5678 5676 5676 5675 5673 5673 5671 5671 5671 5670 5670 5668
5776 5766 5759 5751 5746 5741 5736 5733 5728 5724 5721 5718 5715 5712 5708 5704 5699 5693 5688 5682 5673 5665 5663 5662 5661 5659 5660 5663 5665 5668 5671 5671 5674 5672 5671 5668 5667 5668 5667 5666 5666 5665 5664
5769 5761 5755 5746 5743 5739 5733 5730 5725 5721 5717 5715 5711 5709 5706 5701 5696 5690 5686 5679 5674 5671 5667 5663 5661 5657 5653 5655 5660 5663 5663 5666 5669 5666 5665 5665 5662 5663 5662 5662 5663 5660 5660
5764 5757 5749 5745 5738 5735 5731 5726 5722 5717 5713 5712 5709 5705 5702 5697 5693 5688 5683 5678 5673 5671 5666 5659 5658 5662 5657 5651 5652 5656 5657 5661 5662 5661 5662 5658 5659 5659 5656 5656 5659 5657 5656
5756 5753 5747 5743 5738 5734 5727 5722 5718 5714 5710 5709 5707 5703 5698 5694 5689 5683 5678 5674 5668 5665 5663 5661 5659 5660 5654 5648 5649 5654 5654 5656 5658 5659 5660 5654 5654 5654 5652 5653 5654 5653 5651
5747 5746 5747 5742 5739 5735 5729 5720 5715 5712 5709 5706 5703 5699 5694 5690 5685 5680 5676 5670 5666 5662 5659 5657 5655 5653 5654 5648 5646 5648 5649 5653 5654 5656 5652 5651 5650 5650 5648 5648 5650 5649 5647
5744 5741 5742 5739 5737 5735 5730 5721 5714 5711 5708 5704 5700 5696 5691 5686 5680 5676 5672 5667 5662 5658 5653 5651 5647 5647 5646 5644 5642 5642 5645 5649 5649 5650 5647 5648 5647 5647 5644 5644 5645 5644 5643
5746 5742 5739 5736 5733 5732 5728 5721 5715 5711 5708 5704 5700 5694 5689 5683 5676 5670 5666 5662 5658 5652 5648 5645 5643 5641 5642 5640 5639 5639 5644 5644 5643 5647 5643 5645 5645 5643 5641 5640 5640 5640 5639
5747 5742 5737 5734 5732 5729 5727 5723 5718 5714 5708 5703 5699 5693 5687 5682 5674 5668 5665 5660 5657 5651 5647 5643 5640 5637 5636 5636 5636 5636 5640 5643 5642 5642 5639 5641 5641 5641 5638 5637 5637 5636 5635
5749 5745 5739 5733 5729 5726 5725 5723 5718 5715 5708 5701 5697 5691 5685 5679 5672 5667 5663 5660 5655 5650 5646 5642 5637 5633 5632 5632 5631 5635 5638 5638 5641 5640 5636 5638 5638 5637 5635 5634 5633 5634 5631
5750 5748 5741 5733 5727 5723 5721 5721 5713 5709 5702 5695 5691 5686 5683 5678 5671 5664 5660 5658 5653 5648 5644 5640 5636 5631 5629 5629 5627 5629 5636 5638 5639 5638 5635 5634 5634 5634 5632 5631 5631 5630 5628
5753 5744 5741 5734 5726 5718 5717 5717 5711 5705 5701 5694 5690 5684 5679 5674 5670 5663 5657 5654 5651 5646 5641 5638 5634 5627 5627 5626 5626 5627 5636 5640 5637 5636 5632 5631 5630 5631 5630 5630 5629 5627 5624
5753 5746 5736 5739 5725 5716 5713 5715 5712 5704 5700 5696 5691 5685 5677 5671 5667 5662 5656 5651 5649 5643 5638 5636 5630 5623 5623 5624 5624 5624 5634 5637 5634 5636 5630 5628 5626 5626 5626 5626 5624 5623 5619
5751 5747 5735 5734 5726 5715 5709 5710 5709 5705 5697 5695 5692 5686 5678 5671 5665 5660 5654 5650 5645 5640 5636 5633 5628 5623 5620 5620 5620 5621 5633 5632 5631 5633 5630 5627 5624 5623 5622 5621 5620 5619 5617
5748 5745 5735 5730 5728 5713 5703 5702 5703 5700 5695 5691 5689 5685 5677 5670 5664 5658 5653 5649 5643 5638 5633 5630 5624 5621 5620 5621 5618 5616 5629 5628 5627 5629 5627 5624 5622 5622 5620 5619 5616 5615 5614
5742 5740 5731 5724 5723 5712 5701 5694 5695 5690 5689 5685 5683 5683 5677 5670 5663 5656 5651 5645 5639 5635 5631 5628 5622 5618 5613 5615 5610 5615 5620 5622 5621 5624 5624 5622 5621 5620 5619 5617 5614 5612 5611
5731 5732 5730 5721 5717 5713 5703 5694 5689 5685 5683 5681 5680 5678 5673 5668 5661 5654 5647 5640 5634 5629 5625 5622 5618 5615 5613 5611 5609 5613 5606 5607 5613 5617 5619 5620 5618 5619 5620 5615 5612 5610 5609
5720 5723 5725 5722 5714 5710 5701 5689 5684 5681 5681 5677 5679 5676 5673 5667 5659 5652 5645 5636 5629 5624 5618 5618 5616 5616 5613 5607 5607 5616 5605 5603 5603 5607 5611 5613 5616 5616 5617 5615 5613 5610 5609
5707 5714 5714 5718 5713 5708 5703 5688 5682 5682 5679 5678 5678 5675 5670 5665 5655 5647 5641 5632 5625 5618 5616 5613 5614 5614 5612 5607 5607 5615 5618 5618 5606 5595 5601 5605 5611 5613 5616 5614 5612 5611 5609
5697 5702 5706 5709 5712 5705 5701 5691 5683 5683 5681 5678 5675 5672 5665 5659 5650 5641 5637 5630 5624 5618 5613 5609 5607 5610 5611 5608 5610 5611 5613 5614 5614 5606 5598 5599 5603 5609 5612 5612 5611 5609 5607
5681 5686 5693 5698 5706 5700 5698 5689 5684 5682 5680 5676 5674 5669 5660 5652 5645 5639 5633 5627 5622 5615 5611 5608 5609 5608 5608 5607 5607 5608 5611 5610 5608 5607 5605 5602 5602 5605 5607 5608 5606 5603 5601